Погода в Винер-Нойштадте

Австрия     47°48′10″N   16°13′59″E
темп.,
°C
ветер,
м/с
пор.,
м/с
влажн.,
%
обл.,
%
осадки,
мм/ч
давл.,
гПа
погр.,
м
18 мая, вт
вт1823:00+10зсз616690 0.0 10091267
02:00+10сз6177040 0.0 10101452
05:00+10сз6167066 0.0 10111473
08:00+12зсз6156588 0.0 10121507
11:00+12зсз5136655 0.0 10141367
14:00+15сз610503 0.0 10131453
17:00+17сз68461 0.0 10121702
20:00+12сз386799 0.1 1013236
19 мая, ср
ср1923:00+10з2471100 0.0 1014171
02:00+10з2571100 0.0 1014228
05:00+10з3870100 0.0 1013389
08:00+11сз41064100 0.1 1014825
11:00+12сз6862100 0.1 10141143
14:00+12сз6963100 0.3 10141106
17:00+12сз61062100 0.0 10131124
20:00+11сз61272100 0.0 10141124
20 мая, чт
чт2023:00+10сз51173100 0.1 1014910
02:00+9сз51273100 0.1 10151057
05:00+8сз6148196 0.0 1016849
08:00+9сз7157562 0.0 1017951
11:00+13сз81458100 0.0 10181498
14:00+14сз81354100 0.1 10181538
17:00+14сз81357100 0.0 10191543
20:00+10сз6136624 0.0 1021871
21 мая, пт
пт2123:00+7зсз411780 0.0 1022381
02:00+7з38770 0.0 1022261
05:00+5юз22804 0.0 102240
08:00+12ююв125221 0.0 1021311
11:00+17ю57366 0.0 10171411
14:00+20ю6732100 0.0 10141686
17:00+20ю5636100 0.0 10131128
20:00+16ю4960100 0.0 1012341
22 мая, сб
сб2223:00+11ю377474 0.0 1011179
02:00+9ю2582100 0.0 1009100
05:00+8ю3585100 0.0 1007130
08:00+14юз35645 0.0 1007618
11:00+17всв2253100 0.0 1007964
14:00+16ссз2265100 0.1 1007122
17:00+10сз51189100 1.2 1010623
20:00+9ссз3793100 4.9 1012400